Regional Weather Roundup
Issued by NWS

Home | Current Version | Previous Version | Text Only | Print | Product List | Glossary On
Versions: 1 2 3 4 5 6 7 8 9 10 11 12 13 14 15 16 17 18 19 20 21 22 23 24 25 26 27 28 29 30 31 32 33 34 35 36 37 38 39 40 41 42 43 44 45 46 47 48 49 50
000
ASUS42 KFFC 251603
RWRGA
WEATHER ROUNDUP FOR GEORGIA
NATIONAL WEATHER SERVICE PEACHTREE CITY GA
1200 PM EDT SAT MAR 25 2017

NOTE: "FAIR" INDICATES FEW OR NO CLOUDS BELOW 12,000 FEET WITH NO
SIGNIFICANT WEATHER AND/OR OBSTRUCTIONS TO VISIBILITY.

* = USE WITH CAUTION. THE STATIONS MARKED WITH AN ASTERISK MAY NOT
REPORT WEATHER SUCH AS PRECIPITATION, FOG, OR THUNDER AND ARE NOT
QUALITY CONTROLLED BY NWS.

THE REMARK "TC" DENOTES TEMPERATURE READING IN DEGREES CELSIUS.

GAZ001>058-251700-
NORTH GEORGIA

CITY           SKY/WX    TMP DP  RH WIND       PRES   REMARKS
ATLANTA        PTSUNNY   69  54  58 S12       30.26F
ATHENS         MOSUNNY   70  56  61 VRB6      30.29F
CHAMBLEE       LGT RAIN  69  54  58 S10       30.26F
PEACHTREE CITY MOSUNNY   70  53  54 VRB6      30.26F
ROME           MOSUNNY   72  53  51 SE18      30.20F
WEST ATLANTA   MOSUNNY   70  52  52 S13       30.25F
GAINESVILLE    PTSUNNY   65  54  67 S6        30.30F
CARTERSVILLE   MOSUNNY   70  53  54 S10G17    30.24F


CITY           SKY/WX    TMP DP  RH WIND       PRES   REMARKS
DALTON*        PTSUNNY   68  54  60 SE15G21   30.23F
LAWRENCEVILLE* PTSUNNY   70  55  60 S10G18    30.29F
MARIETTA       CLOUDY    69  53  56 SE9       30.25F
KENNESAW*      MOSUNNY   70  54  56 S10G16    30.24F
CANTON*        MOSUNNY   68  45  42 S10G17    30.27F
$$

GAZ059>098-102>109-251700-
CENTRAL GEORGIA

CITY           SKY/WX    TMP DP  RH WIND       PRES   REMARKS
AUGUSTA-BUSH   PTSUNNY   74  55  51 S12       30.30F
AUGUSTA-DANIEL PTSUNNY   71  53  52 S12       30.31F
COLUMBUS       SUNNY     74  53  48 S12       30.24F
MACON          MOSUNNY   71  56  58 SE14G21   30.28F
ROBINS AFB     MOSUNNY   73  56  55 S15       30.27F


CITY           SKY/WX    TMP DP  RH WIND       PRES   REMARKS
LAGRANGE*      SUNNY     72  59  62 S14G20    30.24F
SYLVANIA*      MOSUNNY  N/A N/A N/A S5        30.32F
MILLEDGEVILLE* MOSUNNY   72  59  64 CALM      30.29F
$$

GAZ099>101-110>166-251700-
SOUTH GEORGIA

CITY           SKY/WX    TMP DP  RH WIND       PRES   REMARKS
SAVANNAH       PTSUNNY   77  50  38 SE12      30.32F
VALDOSTA       MOSUNNY   74  56  53 S12G20    30.27F
ALMA           PTSUNNY   75  58  55 SE10      30.29F
ST SIMONS      MOSUNNY   73  57  57 E12       30.32S
FT STEWART     PTSUNNY   73  54  51 SE8       30.29F
ALBANY         MOSUNNY   74  56  53 S12       30.28F
HUNTER AFB     PTSUNNY   76  56  49 SE12      30.29F
MOODY AFB      PTSUNNY   75  55  50 SE12G21   30.26F
BRUNSWICK      MOSUNNY   75  59  57 SE12      30.32F


CITY           SKY/WX    TMP DP  RH WIND       PRES   REMARKS
BAINBRIDGE*    MOSUNNY   77  55  47 SE13      30.25F
MOULTRIE*      MOSUNNY   73  55  53 SE10      30.27F
VIDALIA*       MOSUNNY   75  55  50 S12       30.30F
WAYCROSS*      PTSUNNY   77  62  60 SE9       30.29F
DOUGLAS*       PTSUNNY   73  54  49 S10       30.30F
$$




USA.gov is the U.S. government's official web portal to all federal, state and local government web resources and services.